Regional Weather Roundup
Issued by NWS Charleston, SC

Current Version | Previous Version | Graphics & Text | Print | Product List | Glossary Off
Versions: 1 2 3 4 5 6 7 8 9 10 11 12 13 14 15 16 17 18 19 20 21 22 23 24 25 26 27 28 29 30 31 32 33 34 35 36 37 38 39 40 41 42 43 44 45 46 47 48 49 50

865
ASUS42 KCHS 262112
RWRCHS

REGIONAL WEATHER ROUNDUP
NATIONAL WEATHER SERVICE CHARLESTON SC
500 PM EDT FRI MAY 26 2017

NOTE: "FAIR" INDICATES FEW OR NO CLOUDS BELOW 12,000 FEET WITH NO
SIGNIFICANT WEATHER AND/OR OBSTRUCTIONS TO VISIBILITY.

NOT ALL STATIONS ARE QUALITY CONTROLLED. USE DATA WITH CAUTION...
ESPECIALLY DEWPOINT OBSERVATIONS.

SCZ027-030-031-034>040-042>050-262200-
...SOUTHEAST SOUTH CAROLINA...

CITY           SKY/WX    TMP DP  RH WIND       PRES   REMARKS
N CHARLESTON   MOSUNNY   83  53  35 W14G20    29.95F
WATERFRONT PRK   N/A     79  62  56 S13       29.93F
JOHNS ISLAND   FAIR      81  61  50 S16       29.96S
PINOPOLIS        N/A     81  57  44 W9G16     29.89S
MONCKS CORNER  FAIR      81  50  34 W6        29.95S
SUMMERVILLE    FAIR      82  54  36 W12       29.97S
BEAUFORT MCAS  SUNNY     84  56  38 W10G18    29.97F
BEAUFORT ARPT  NOT AVBL
HILTON HEAD IS SUNNY     84  54  34 W12       29.99S
WALTERBORO     CLEAR     82  52  34 W12G18    29.97F
ALLENDALE      FAIR      82  52  34 CALM      29.96F

...SOUTHERN MIDLANDS AND PEE DEE...

CITY           SKY/WX    TMP DP  RH WIND       PRES   REMARKS
GEORGETOWN     FAIR      81  52  36 W12G17    29.95S
KINGSTREE      NOT AVBL
ORANGEBURG     SUNNY     84  52  33 NW14      29.96S
BARNWELL       FAIR      84  54  34 W13       29.97F
AIKEN          FAIR      81  54  39 W10G17    30.01F
MANNING        NOT AVBL
COLUMBIA       MOSUNNY   84  53  34 W17       29.94F
SUMTER         SUNNY     84  53  35 W8        29.92S
FLORENCE       SUNNY     83  52  34 SW17      29.93S
MYRTLE BEACH   SUNNY     82  55  39 W13       29.93S
N MYRTLE BEACH SUNNY     83  54  36 W9        29.91F

$$

GAZ063-065-086>088-099>101-113>116-118-119-134>141-150-262200-
...SOUTHEAST GEORGIA...

CITY           SKY/WX    TMP DP  RH WIND       PRES   REMARKS
SAVANNAH ARPT  MOSUNNY   87  50  27 W15       29.98F
HUNTER AAF     SUNNY     85  61  44 W6        29.96S
FORT STEWART   SUNNY     85  51  30 W7        29.97F
STATESBORO     SUNNY     84  54  34 W7        29.99F
SYLVANIA       CLEAR     84  56  37 NW8       29.99F
CLAXTON        FAIR      83  57  40 SW7       30.00S

...CSRA...CENTRAL AND FAR SOUTHEAST GEORGIA...

CITY           SKY/WX    TMP DP  RH WIND       PRES   REMARKS
THOMSON        SUNNY     83  56  40 NW8       30.03F
AUGUSTA-BUSH   SUNNY     87  56  34 VRB7      29.96F
AUGUSTA-DANIEL SUNNY     84  53  34 W9G18     29.98F
SWAINSBORO     FAIR      84  57  39 W9G16     30.01S
VIDALIA        SUNNY     84  57  39 NW10      30.01S
EASTMAN        FAIR      85  40  20 W5        30.04F
HAZLEHURST     FAIR      86  57  36 NW6       30.00F
ALMA           SUNNY     86  53  32 W9        30.01S
WAYCROSS       SUNNY     89  56  33 W8G16     30.00S
JESUP          FAIR      86  46  25 W9        30.00S
BAXLEY         FAIR      86  59  39 NW6       30.01S
BRUNSWICK      SUNNY     86  57  37 W7        30.00S
SAINT SIMONS   SUNNY     81  61  50 S10       29.99F

$$

SCZ027-028-034-036>038-045-046-048>050-GAZ119-141-262200-
...LAKE AND SUPPLEMENTAL COASTAL OBSERVATIONS...

STATION/POSITION TIME  TEMP    WIND        PRES    WAVE   SWELL
                       AIR SEA DIR/SP/G            HT/PER HT/PER/DIR
                 (UTC) (F)     (DEG/KT/KT) (MB)    (FT/S) (FT/S/D)
WINYAH BAY       1945   80     280/  9     1014.0
LAKE MURRAY      2020   79     270/ 13/ 15 1013.5F
ACE BASIN NERRS  1945   82     260/  3     1015.0
FORT PULASKI     2048   81     290/ 10/ 14 1015.4F
SAPELO ISLAND    2000   85     240/  6     1016.0

$$

ANZ835-935-AMZ111-154-330-350-352-354-370-450-454-472-262200-
...C-MAN AND BUOY OBSERVATIONS...

STATION/POSITION TIME  TEMP    WIND        PRES    WAVE   SWELL
                       AIR SEA DIR/SP/G            HT/PER HT/PER/DIR
                 (UTC) (F)     (DEG/KT/KT) (MB)    (FT/S) (FT/S/D)
BUOY 41004       2050   74 75  240/ 17/ 19 1014.6F   3/ 4   2/150/ 8
BUOY 41008       1950   75 78  180/ 10/ 10 1016.2    1/ 8   2/ 90/ 8
FOLLY BEACH CMAN 2000   76     210/ 18/ 21 1015.4F
CAPERS NEARSHORE 2008   80 76  230/ 17/ 25 1014.1F
FRIPP NEARSHORE  2008   76 78  220/ 14/ 17 1015.2F


STATION/POSITION TIME  TEMP    WIND        PRES    WAVE   SWELL
                       AIR SEA DIR/SP/G            HT/PER HT/PER/DIR
                 (UTC) (F)     (DEG/KT/KT) (MB)    (FT/S) (FT/S/D)
5E ST. MARYS GA  2030      80                N/A     1/ 8
FRYING PAN BUOY  2050   74 75  230/ 17/ 21 1013.5F   5/ 6
BUOY 41025       2050   75 80  250/ 17/ 21 1011.1S   6/ 8   2/220/ 8
CAPE LOOKOUT NC  2000   76     220/ 15/ 20 1011.5F
BUOY 41002       2050   77 77  260/ 10/ 14 1015.2F   6/ 7   5/220/ 7
BUOY 41010       2050   78 79  270/  8/ 12 1016.5S   3/ 6   3/290/ 6
ST AUGUSTINE FL  2100   75 79  130/  8/  9 1017.3F


$$




USA.gov is the U.S. government's official web portal to all federal, state and local government web resources and services.